This is the latest recevied weather packets stored in our database for station/object SP8EBC-11. If no packets are shown the sender has not sent any weather packets the latest 1 day(s).
| Time | Temp. | Humidity | Pressure | Rain* | Wind** | Luminosity | Snow |
|---|---|---|---|---|---|---|---|
| 1778009655 | 15° C | 69% | 991.4 hPa | - | 4.02 m/s, 32° | - | - |
| 1778009535 | 15° C | 69% | 991.4 hPa | - | 4.02 m/s, 33° | - | - |
| 1778009415 | 15° C | 69% | 991.4 hPa | - | 3.58 m/s, 33° | - | - |
| 1778009295 | 15° C | 69% | 991.4 hPa | - | 3.13 m/s, 30° | - | - |
| 1778009175 | 15.56° C | 69% | 991.4 hPa | - | 3.58 m/s, 35° | - | - |
| 1778009055 | 15.56° C | 69% | 991.4 hPa | - | 4.02 m/s, 33° | - | - |
| 1778008935 | 15.56° C | 69% | 991.4 hPa | - | 4.02 m/s, 29° | - | - |
| 1778008815 | 15.56° C | 69% | 991.4 hPa | - | 4.02 m/s, 24° | - | - |
| 1778008694 | 15.56° C | 69% | 991.3 hPa | - | 3.58 m/s, 26° | - | - |
| 1778008574 | 15.56° C | 69% | 991.3 hPa | - | 4.02 m/s, 19° | - | - |
| 1778008456 | 15.56° C | 69% | 991.3 hPa | - | 4.02 m/s, 17° | - | - |
| 1778008334 | 16.11° C | 69% | 991.3 hPa | - | 3.58 m/s, 23° | - | - |
| 1778008214 | 16.11° C | 68% | 991.3 hPa | - | 3.58 m/s, 30° | - | - |
| 1778008094 | 16.11° C | 68% | 991.2 hPa | - | 4.02 m/s, 35° | - | - |
| 1778007974 | 16.11° C | 68% | 991.2 hPa | - | 3.58 m/s, 31° | - | - |
| 1778007854 | 16.11° C | 68% | 991.2 hPa | - | 3.13 m/s, 22° | - | - |
| 1778007734 | 16.11° C | 68% | 991.2 hPa | - | 3.58 m/s, 29° | - | - |
| 1778007614 | 16.67° C | 67% | 991.2 hPa | - | 4.02 m/s, 27° | - | - |
| 1778007494 | 16.67° C | 67% | 991.2 hPa | - | 3.13 m/s, 20° | - | - |
| 1778007374 | 16.67° C | 67% | 991.2 hPa | - | 3.13 m/s, 27° | - | - |
| 1778007254 | 16.67° C | 67% | 991.1 hPa | - | 3.13 m/s, 30° | - | - |
| 1778007134 | 16.67° C | 67% | 991.1 hPa | - | 3.13 m/s, 32° | - | - |
| 1778007014 | 16.67° C | 67% | 991.2 hPa | - | 3.13 m/s, 29° | - | - |
| 1778006893 | 16.67° C | 66% | 991.1 hPa | - | 3.58 m/s, 22° | - | - |
| 1778006774 | 16.67° C | 66% | 991.1 hPa | - | 3.58 m/s, 26° | - | - |
* Rain since midnight (hover to see other rain measurements)
** Current wind speed in m/s (hover to see current wind gust speed)